This is the latest recevied weather packets stored in our database for station/object WA3NOA-2. If no packets are shown the sender has not sent any weather packets the latest 1 day(s).
| Time | Temp. | Humidity | Pressure | Rain* | Wind** | Luminosity | Snow |
|---|---|---|---|---|---|---|---|
| 1777997227 | 26.67° C | 46% | 1004.1 hPa | 0 mm | 1.79 m/s, 261° | - | - |
| 1777996988 | 26.11° C | 48% | 1004.2 hPa | 0 mm | 0 m/s | - | - |
| 1777996927 | 26.11° C | 43% | 1004.2 hPa | 0 mm | 0.45 m/s, 226° | - | - |
| 1777996627 | 26.11° C | 45% | 1004.3 hPa | 0 mm | 1.34 m/s, 284° | - | - |
| 1777996326 | 26.11° C | 44% | 1004.3 hPa | 0 mm | 0 m/s | - | - |
| 1777996088 | 26.11° C | 44% | 1004.3 hPa | 0 mm | 1.79 m/s, 252° | - | - |
| 1777996027 | 26.11° C | 43% | 1004.2 hPa | 0 mm | 1.34 m/s, 304° | - | - |
| 1777995726 | 26.11° C | 45% | 1004.4 hPa | 0 mm | 1.34 m/s, 246° | - | - |
| 1777995426 | 26.11° C | 47% | 1004.6 hPa | 0 mm | 1.34 m/s, 246° | - | - |
| 1777995188 | 26.11° C | 44% | 1004.6 hPa | 0 mm | 2.68 m/s, 268° | - | - |
| 1777995126 | 26.11° C | 46% | 1004.5 hPa | 0 mm | 3.13 m/s, 223° | - | - |
| 1777994827 | 26.11° C | 45% | 1004.6 hPa | 0 mm | 0.89 m/s, 87° | - | - |
| 1777994526 | 26.11° C | 44% | 1004.7 hPa | 0 mm | 0.45 m/s, 265° | - | - |
| 1777994288 | 26.11° C | 46% | 1004.7 hPa | 0 mm | 1.34 m/s, 227° | - | - |
| 1777994226 | 26.11° C | 45% | 1004.7 hPa | 0 mm | 0 m/s | - | - |
| 1777993926 | 25.56° C | 45% | 1004.8 hPa | 0 mm | 1.34 m/s, 243° | - | - |
| 1777993626 | 25.56° C | 45% | 1004.8 hPa | 0 mm | 0.89 m/s, 290° | - | - |
| 1777993388 | 25.56° C | 47% | 1004.8 hPa | 0 mm | 4.02 m/s, 241° | - | - |
| 1777993326 | 25.56° C | 47% | 1004.8 hPa | 0 mm | 0.89 m/s, 261° | - | - |
| 1777993026 | 25° C | 46% | 1004.8 hPa | 0 mm | 1.34 m/s, 271° | - | - |
| 1777992726 | 25° C | 48% | 1004.8 hPa | 0 mm | 0.89 m/s, 253° | - | - |
| 1777992488 | 25° C | 48% | 1004.6 hPa | 0 mm | 2.68 m/s, 240° | - | - |
| 1777992426 | 24.44° C | 46% | 1004.7 hPa | 0 mm | 0 m/s | - | - |
| 1777992126 | 24.44° C | 53% | 1004.6 hPa | 0 mm | 0.45 m/s, 221° | - | - |
| 1777991826 | 24.44° C | 46% | 1004.6 hPa | 0 mm | 0 m/s | - | - |
* Rain latest hour (hover to see other rain measurements)
** Current wind speed in m/s (hover to see current wind gust speed)